Terminal Aerodrome Forecast
Issued by NWS Twin Cities, MN

Home | Current Version | Previous Version | Graphics & Text | Print | Product List | Glossary On
Versions: 1 2 3 4 5 6 7 8 9 10 11 12 13 14 15 16 17 18
737
FTUS43 KMPX 231132
TAFSTC
TAF
KSTC 231132Z 2312/2412 01009KT P6SM BKN140
     FM231700 04010KT P6SM BKN150
     FM240500 02012G21KT P6SM OVC060=

USA.gov is the U.S. government's official web portal to all federal, state and local government web resources and services.